Вернуться в каталог

STARLINK-37541

АктивенСвязьSSO
NORAD 68906·PAYLOAD·🇺🇸 United States

Запущен Apr 30, 2026 с Vandenberg Space Force Base

Loading…

Ближайшие Пролёты (ближайшие 24 часа)

TLE

СвежийSource: CelesTrak SupGP

Эпоха: Sep 15, 2026, 03:54 UTC

1 68906C 26097M   26258.16298611 -.00056922  00000+0 -17670-2 0  2586
2 68906  97.2850  92.3160 0001708  93.7072 122.3608 15.33467310    13

Отслеживайте STARLINK-37541 в реальном времени с AllMySat

Download on the App Store